Погода в Ключи

Погода в Ключи : погода сейчас, прогноз погоды и архив. Всё, что Вы хотите узнать о погоде в Ключи!

Хотите узнать прогноз погоды в Ключи? Тогда Вам сюда: Погода в Ключи

Поиск расширенной информации на нашем сайте:

Другие новости

Новости СМИ2

Главная страница сайта

Новости сайта

03.07.2017

Напоминаем, что на нашем специализированном сайте Метеоцентр.Азия вы можете получить высокодетализированные автоматические прогнозы погоды по пунктам России, СНГ и мира в авиационном формате (включающие направление и скорость ветра, видимость, явления погоды, количество и форму облачности, нижнюю и верхнюю границу облачности).


Погода в Ключи - сегодня

Время (UTC), дата Ветер
(°,м/с) 
Видим.   Явления Облачность Т
(°С)
Тd
(°С)
f(%) Тe
(°С)
Pmin
(гПа)
dP
(гПа)
Po
(мм)
O2
(г/м3)
Тmin Tmax R s Состояние
почвы
09 22.11.17 290 (З) 6{13}  20000 м    ясно 
-6.1 -17 42 -11  1011.9  2.4  756  313    -4.2       
12 22.11.17 220 (ЮЗ) 3{12}  20000 м    ясно 
-7.8 -16.1 51 -11  1015  758  316           
15 22.11.17 220 (ЮЗ) 20000 м    ясно 
-9.6 -15.6 62 -11  1017.2  2.1  760  319           
18 22.11.17 270 (З) 20000 м    ясно 
-13.2 -16.2 78 -13  1019.1  1.8  761  324           
21 22.11.17 110 (В) 20000 м    3/1 1000 м верхняя 
[Sc|Ci fib]
-14.6 -17.2 81 -15  1019.9  0.8  762  326  -14.8      неравномерный
мокрый или
старый снег
100% 
00 23.11.17 тихо ()   20000 м    9/3 1000 м средняя, верхняя 
[Sc|Ac trans|Ci fib]
-9.7 -14.1 70 -10  1019.6  -0.3  762  320           
03 23.11.17 120 (ЮВ) 20000 м    9/3 1000 м средняя, верхняя 
[Sc|Ac trans|Ci fib]
-5.4 -13.3 54 -5  1017.8  -1.7  761  314           
06 23.11.17 120 (ЮВ) 20000 м    10/4 1000 м средняя 
[Sc|As op]
-7 -13.3 61 -8  1017.2  -0.6  760  316           
09 23.11.17 220 (ЮЗ) 20000 м    10/5 1000 м средняя 
[Sc|Ac As]
-6.9 -12 67 -7  1016  -1.2  759  315    -5.3       
12 23.11.17 010 (С) 20000 м    10/5 1000 м средняя 
[Sc|Ac As]
-5.7 -9.6 74 -5  1014.3  -1.7  758  313           
15 23.11.17 130 (ЮВ) 20000 м    10/4 1000 м средняя 
[Sc|Ac As]
-5.6 -8.4 81 -5  1012.6  -1.8  757  312           
18 23.11.17 270 (З) 20000 м    10/4 1000 м средняя 
[Sc|Ac As]
-6.1 -9 80 -9  1010.1  -2.5  755  312           
21 23.11.17 280 (З) 20000 м    9/4 1000 м средняя, верхняя 
[Sc|Ac trans|Ci fib]
-6.1 -8.3 84 -8  1008.7  -1.4  754  312  -7.9      неравномерный
мокрый или
старый снег
100% 
00 24.11.17 280 (З) 20000 м  {ливн. осадки}  9/4 1000 м средняя, верхняя 
[Sc|Ac trans|Ci fib]
-4.1 -7.6 77 -5  1006.4  -2.3  752  308           
03 24.11.17 070 (В) 10-16{16}  20000 м    9/5 1000 м средняя, верхняя 
[Sc|Ac trans|Ci fib]
+4 -2.1 64 1000.9  -5.4  748  297           
06 24.11.17 100 (В) 12-19{19}  4000 м  слаб. ливневой дождь  10/10 360 м кучево-дожд. 
[Cb cap]
+2.9 -0.3 79 -2  993.2  -7.6  742  296           
09 24.11.17 070 (В) 9-15{22}  20000 м  {ливн. осадки}  10/8 1000 м средняя 
[Sc diur, vesp|Ac As]
+4.3 -1.4 66 +1  987.5  -5.6  738  293    +4.3     
12 24.11.17 090 (В) 3{16}  20000 м  {ливн. осадки}  10/8 1000 м средняя 
[Sc|Ac As]
+3.9 -1.1 70 +3  989.6  2.1  740  294           
15 24.11.17 330 (СЗ) 2{10}  20000 м    9/4 1000 м средняя 
[Sc|Ac trans]
+3.9 -6.9 45 +3  990.6  0.9  740  295           
18 24.11.17 180 (Ю) 20000 м    9/4 1000 м средняя 
[Sc|Ac trans]
+0.6 -7.7 54 992.7  742  299           
21 24.11.17 280 (З) 5{14}  20000 м    4/1 1000 м верхняя 
[Sc|Ci fib]
+0.5 -18.2 23 -2  995.1  2.3  744  300  +0      мокрый или
старый снег
50-90% 
00 25.11.17 040 (СВ) 3{14}  20000 м    5/0 средняя, верхняя 
[Ac trans|Ci fib]
+0.9 -16.2 27 -1  996.3  1.2  745  300  -0.5         
03 25.11.17 150 (ЮВ) 2{12}  20000 м    8/1 1000 м средняя, верхняя 
[Sc|Ac trans|Ci fib]
+1 -14.9 29 998.5  2.2  746  301           
06 25.11.17 160 (Ю) 20000 м    8/1 1000 м средняя, верхняя 
[Sc|Ac trans|Ci fib]
-2.5 -14.5 39 -2  1000.6  2.1  748  305           
09 25.11.17 110 (В) 20000 м    8/3 1000 м средняя 
[Sc|Ac trans]
-7 -12.8 63 -7  1001.1  0.4  748  311    +2       
Время (UTC), дата Ветер
(°,м/с) 
Видим.   Явления Облачность Т
(°С)
Тd
(°С)
f(%) Тe
(°С)
Pmin
(гПа)
dP
(гПа)
Po
(мм)
O2
(г/м3)
Тmin Tmax R s Состояние
почвы

Для получения пояснительной информации подведите курсор к названию столбца.

ПОГОДА в Ключи - архив

Всё, что Вы хотите узнать о погоде в Ключи - удобно и подробно!

Выберите нужную дату (начиная с 1 января 2015* года) и нажмите кнопку "Найти".
Будут отображены архивные сводки погоды по пункту Ключи, начиная с указанной даты.


Отображать данные в формате CSV (для использования в таблицах Excel)


Внимание! Наш архив погоды предназначен исключительно для личного некоммерческого использования в познавательных целях. Если Вам необходимы официальные справки о состоянии погоды (для производственных, юридических, коммерческих и т.п. целей), обращайтесь в органы Росгидромета.

*Примечание: данная дата относится к архиву по метеостанциям СССР (Россия, СНГ, Балтия).
Архив по метеостанциям Зарубежной Европы и Азии (кроме Китая) хранится 10 дней, по другим регионам земного шара (Китай, Африка, Америка, Австралия, Океания) - 1 день.

Ключи - район местоположения метеостанции


Название, широта, долгота, высота метеостанции:
Ключи 56.3°ш. 160.8°д. 29 м над ур. моря [Российская Федерация]

Дополнительная информация

В oтличие oт бoльшинства пoгoдных сайтoв мы публикуем пoдрoбную метеoинфoрмацию в детальнoм прoфессиoнальнoм фoрмате.

Характеристики температуры и влажнoсти вoздуха измеряются на высoте 2 м в тени вдали oт зданий и деревьев.
Скoрoсть ветра измеряется на высoте 10 м (на урoвне рoста челoвека скoрoсть ветра ниже в 1.5-2 раза). Если метеoстанция нахoдится в гoрoде или в лесу, тo скoрoсть ветра занижена на 2-4 м/с пo сравнению с oткрытым местoм. Скoрoсть ветра над акватoриями крупных рек и oзёр, а также на вершинах хoлмoв на 2-5 м/с выше, чем в oбычных услoвиях.
Атмoсфернoе давление в разных тoчках местнoсти мoжет значительнo oтличаться oт давления на метеoстанции, в зависимoсти oт услoвий рельефа (при пoдъёме на 10 м давление пoнижается примернo на 1 мм рт.ст.).